Regional Weather Roundup
Issued by NWS

Home | Current Version | Previous Version | Text Only | Print | Product List | Glossary Off
Versions: 1 2 3 4 5 6 7 8 9 10 11 12 13 14 15 16 17 18 19 20 21 22 23 24 25 26 27 28 29 30 31 32 33 34 35 36 37 38 39 40 41 42 43 44 45 46 47 48 49 50

448
ASUS44 KLIX 302111
RWRLA
LOUISIANA WEATHER ROUNDUP
NATIONAL WEATHER SERVICE NEW ORLEANS LA
400 PM CDT MON MAR 30 2015

NOTE: "FAIR" INDICATES FEW OR NO CLOUDS BELOW 12,000 FEET WITH NO
      SIGNIFICANT WEATHER AND/OR OBSTRUCTIONS TO VISIBILITY.
      SKY/WX - SKY CONDITION AND SIGNIFICANT WEATHER.
      TMP - AIR TEMPERATURE.    DP   - DEWPOINT TEMPERATURE.
      RH  - RELATIVE HUMIDITY.  PRES - PRESSURE.
      HX  - HEAT INDEX.         WCI  - WIND CHILL INDEX.

*  THESE STATIONS ARE NOT NWS OR FAA STATIONS AND ARE NOT UNDER
   NWS QUALITY CONTROL.

LAZ040-048-061>063-065-066-069-302200-
SOUTHEAST LOUISIANA

CITY           SKY/WX    TMP DP  RH WIND       PRES   REMARKS
N.O. AUDUBON     N/A     81  67  62 MISG        N/A
N.O. INTL ARPT PTSUNNY   82  59  45 SW12      30.14F
N.O. LAKEFRONT SUNNY     81  63  54 NE3       30.15F
SLIDELL        MOSUNNY   81  60  48 SW9       30.14F
BATON ROUGE    PTSUNNY   80  57  45 W9        30.13F
BOOTHVILLE     SUNNY     77  63  61 SW12      30.18F
BELLE CHASSE   MOSUNNY   80  61  52 SW13      30.14F
BOGALUSA*        N/A     85  53  32 W9        30.14F
GALLIANO*      CLEAR     80  62  54 SW14G26   30.17F
NEW ROADS*     FAIR      80  58  47 W7        30.13F
GONZALES*      FAIR      82  62  50 W10       30.14F
HAMMOND*       MOSUNNY   82  54  36 SW7       30.15F
HOUMA*         PTSUNNY   79  63  57 SW15      30.16F
PORT FOURCHON* CLEAR     77  63  61 SW10      30.21F

$$

LAZ041-044-053-054-302200-
SOUTHWEST LOUISIANA

CITY           SKY/WX    TMP DP  RH WIND       PRES   REMARKS
LAKE CHARLES   SUNNY     78  62  57 S14G21    30.14F
LAFAYETTE      MOSUNNY   80  57  45 SW12      30.14F
PATTERSON      MOSUNNY   79  63  57 SW14G21   30.17F
SALT POINT       N/A     74  66  76 VRB6      30.16F
NEW IBERIA     PTSUNNY   79  60  52 W14       30.15F
CHENAULT AIRPK NOT AVBL

$$

LAZ027-028-302200-
CENTRAL LOUISIANA

CITY           SKY/WX    TMP DP  RH WIND       PRES   REMARKS
FORT POLK      PTSUNNY   80  58  45 S12       30.11F
ALEXANDRIA INT SUNNY     81  56  42 SW9       30.09F
ALEXANDRIA     MOSUNNY   80  56  43 VRB6      30.11F

$$

LAZ001-002-302200-
NORTHWEST LOUISIANA

CITY           SKY/WX    TMP DP  RH WIND       PRES   REMARKS
SHREVEPORT     CLOUDY    74  62  66 S6        30.11F
BARKSDALE AFB  PTSUNNY   75  62  64 SW7       30.11F
DTN SHREVEPORT CLOUDY    73  61  65 S10       30.12F

$$

LAZ014-016-302200-
NORTHEAST LOUISIANA

CITY           SKY/WX    TMP DP  RH WIND       PRES   REMARKS
MONROE         CLOUDY    76  63  64 CALM      30.13F
TALLULAH       PTSUNNY   76  62  62 E6        30.12F

$$




USA.gov is the U.S. government's official web portal to all federal, state and local government web resources and services.